Scottsbluff, NE

10:46 AM MDT on September 23, 2019 (GMT -0600)
Heilig

Weather History for KBFF - July, 2019

Change the Weather History Date:

Sunday, July 21, 2019

  Actual Average Record
Temperature  
Mean Temperature 72 °F -  
Max Temperature 81 °F 86 °F 104 °F (2012)
Min Temperature 64 °F 58 °F 44 °F (1897)
Cooling Degree Days 8    
Growing Degree Days 22 (Base 50)    
Moisture  
Dew Point 61 °F    
Average Humidity 73    
Maximum Humidity 90    
Minimum Humidity 48    
Precipitation  
Precipitation 0.00 in - - ()
Sea Level Pressure  
Sea Level Pressure 30.09 in    
Wind  
Wind Speed 10 mph (East)    
Max Wind Speed 17 mph    
Max Gust Speed 25 mph    
Visibility 10 miles    
Events      
Averages and records for this station are not official NWS values.
T = Trace of Precipitation, MM = Missing Value Source: NWS Daily Summary

Daily Weather History Graph

Daily Weather History Graph

Search for Another Location

Airport or City:

Astronomy

Jul. 21, 2019 Rise Set
Actual Time 5:37 AM MDT 8:23 PM MDT
Civil Twilight 5:04 AM MDT 8:56 PM MDT
Nautical Twilight 4:23 AM MDT 9:37 PM MDT
Astronomical Twilight 3:36 AM MDT 10:23 PM MDT
Moon 11:15 PM MDT (7/21) 10:03 AM MDT (7/21)
Length of Visible Light 15h 51m
Length of Day
14h 46m
Waning Gibbous, 80% of the Moon is Illuminated
Jul 21
Waning Gibbous
Jul 24
Last Quarter
Jul 31
New
Aug 7
First Quarter
Aug 15
Full

Hourly Weather History & Observations

Time (MDT) Temp. Heat Index Dew Point Humidity Pressure Visibility Wind Dir Wind Speed Gust Speed Precip Events Conditions
12:08 AM 64.0 °F - 60.1 °F 87% 30.13 in 10.0 mi NW 17.3 mph 25.3 mph 0.00 in   Mostly Cloudy
12:20 AM 64.0 °F - 60.1 °F 87% 30.12 in 10.0 mi NNW 15.0 mph - 0.00 in   Mostly Cloudy
12:53 AM 64.0 °F - 60.1 °F 87% 29.98 in 10.0 mi ENE 8.1 mph - 0.00 in   Scattered Clouds
1:40 AM 64.0 °F - 59.0 °F 84% 30.05 in 10.0 mi SE 16.1 mph - N/A   Mostly Cloudy
1:53 AM 64.9 °F - 60.1 °F 84% 29.89 in 10.0 mi ESE 15.0 mph - N/A   Scattered Clouds
2:53 AM 64.0 °F - 61.0 °F 90% 29.90 in 10.0 mi SSW 8.1 mph - N/A   Clear
3:53 AM 64.9 °F - 61.0 °F 87% 29.95 in 10.0 mi ENE 4.6 mph - N/A   Mostly Cloudy
4:53 AM 66.0 °F - 61.0 °F 84% 29.97 in 10.0 mi ESE 9.2 mph - N/A   Overcast
5:53 AM 66.0 °F - 61.0 °F 84% 29.98 in 10.0 mi ESE 5.8 mph - N/A   Overcast
6:19 AM 64.9 °F - 61.0 °F 87% 30.12 in 10.0 mi East 5.8 mph - N/A   Mostly Cloudy
6:53 AM 66.9 °F - 61.0 °F 81% 30.00 in 10.0 mi Calm Calm - N/A   Clear
7:53 AM 68.0 °F - 61.0 °F 78% 30.02 in 10.0 mi Calm Calm - N/A   Clear
8:53 AM 70.0 °F - 60.1 °F 71% 30.03 in 10.0 mi Calm Calm - N/A   Clear
9:38 AM 72.0 °F - 60.1 °F 66% 30.17 in 10.0 mi Calm Calm - N/A   Mostly Cloudy
9:53 AM 72.0 °F - 60.1 °F 66% 30.05 in 10.0 mi Calm Calm - N/A   Overcast
10:16 AM 72.0 °F - 61.0 °F 68% 30.18 in 10.0 mi NE 4.6 mph - N/A   Overcast
10:27 AM 73.0 °F - 61.0 °F 66% 30.19 in 10.0 mi Calm Calm - N/A   Overcast
10:53 AM 73.0 °F - 61.0 °F 66% 30.07 in 10.0 mi East 6.9 mph - N/A   Overcast
11:53 AM 75.9 °F - 60.1 °F 58% 30.09 in 10.0 mi East 9.2 mph - N/A   Mostly Cloudy
12:53 PM 77.0 °F - 60.1 °F 56% 30.09 in 10.0 mi East 10.4 mph - N/A   Overcast
1:53 PM 75.0 °F - 61.0 °F 62% 30.09 in 10.0 mi ENE 11.5 mph - N/A   Overcast
2:53 PM 79.0 °F - 60.1 °F 52% 30.08 in 10.0 mi ENE 9.2 mph - N/A   Clear
3:53 PM 80.1 °F 81.2 °F 62.1 °F 54% 30.08 in 10.0 mi East 13.8 mph - N/A   Mostly Cloudy
4:53 PM 75.9 °F - 62.1 °F 62% 30.11 in 10.0 mi ENE 15.0 mph - N/A   Mostly Cloudy
5:53 PM 77.0 °F - 61.0 °F 58% 30.11 in 10.0 mi ENE 11.5 mph - N/A   Clear
6:53 PM 75.9 °F - 61.0 °F 60% 30.12 in 10.0 mi NE 11.5 mph - N/A   Partly Cloudy
7:53 PM 72.0 °F - 61.0 °F 68% 30.14 in 10.0 mi East 12.7 mph - N/A   Clear
8:53 PM 66.9 °F - 61.0 °F 81% 30.17 in 10.0 mi East 8.1 mph - N/A   Clear
9:53 PM 66.0 °F - 61.0 °F 84% 30.21 in 10.0 mi East 9.2 mph - N/A   Mostly Cloudy
10:53 PM 64.9 °F - 60.1 °F 84% 30.22 in 10.0 mi ESE 11.5 mph - N/A   Overcast
11:33 PM 64.0 °F - 60.1 °F 87% 30.35 in 10.0 mi East 10.4 mph - N/A   Overcast
11:53 PM 64.0 °F - 59.0 °F 84% 30.24 in 10.0 mi East 11.5 mph - N/A   Overcast